Volver al catálogo

SL-12 R/B(2)

LostMEO
NORAD 23739·ROCKET BODY·🇷🇺 Russia

Lanzado Dec 14, 1995 desde Baikonur Cosmodrome

Loading…

Próximos Pases (próximas 24 horas)

TLE

ObsoletoSource: Space-Track

Época: Aug 6, 2026, 02:13 UTC

1 23739U 95068F   26218.09252670  .00000106  00000-0  00000+0 0  9998
2 23739  65.4775 200.0457 0012552 195.9624 340.8446  2.13375454238757

Sigue SL-12 R/B(2) en tiempo real con AllMySat

Download on the App Store